(278845) = 2004 TB100 = 2008 SV308

Discovered at Socorro on 2008-09-22 by LINEAR.

Orbit

Orbit type: Main Belt

Note: WebGL enabled browser required.

epoch2023-02-25.0
epoch JD2460000.5
perihelion date2020-09-13.62154
perihelion JD2459106.12154
argument of perihelion (°)261.32076
ascending node (°)49.82587
inclination (°)4.83413
eccentricity0.1325033
perihelion distance (AU)2.2415354
Tisserand w.r.t. Jupiter3.4
ΔV w.r.t. Earth (km/sec)9.5
semimajor axis (AU)2.5839123
mean anomaly (°)212.23086
mean daily motion (°/day)0.23729420
aphelion distance (AU)2.926
period (years)4.15
P-vector [x]0.65530147
P-vector [y]-0.65567116
P-vector [z]-0.37506709
Q-vector [x]0.75261799
Q-vector [y]0.60906863
Q-vector [z]0.25020306
absolute magnitude17.2
phase slope0.15
uncertainty0
referenceMPEC 2023-E28
observations used205
oppositions15
arc length (days)8128
first opposition used2000
last opposition used2023
residual rms (arc-secs)0.89
perturbers coarse indicatorM-v
perturbers precise indicator003Ek
first observation date used2000-11-28.0
last observation date used2023-03-01.0
computer nameMPCLINUX
JD of orbit computation2456639.657000
perihelion JD uncertainty (days)2.1337E-04
argument of perihelion uncertainty (°)9.6848E-05
ascending node uncertainty (°)8.3228E-05
inclination uncertainty (°)1.2079E-05
eccentricity uncertainty 6.5216E-08
perihelion distance uncertainty (AU)1.8581E-07
Minimum Orbit Intersection Distances (in AU)
for orbit epoch: 2460000.5, reference: E2023-E28
Mercury1.80544
Venus1.51399
Earth1.23237
Mars0.84362
Jupiter2.31601
Saturn6.20579
Uranus15.572
Neptune27.2533

Observations

209 total observations over interval: 2000 11 28.20253 – 2023 03 01.280101
These data are available for download (format description).

Date (UT) J2000 RA J2000 Dec Magn Location Ref
2000 11 28.20253 02 34 59.64 +15 12 45.9 21.4 V 691 – Steward Observatory, Kitt Peak-Spacewatch MPS 312622
2000 11 28.23450 02 34 58.16 +15 12 42.3 21.8 V 691 – Steward Observatory, Kitt Peak-Spacewatch MPS 312622
2000 11 28.26472 02 34 56.79 +15 12 39.8 21.5 V 691 – Steward Observatory, Kitt Peak-Spacewatch MPS 312622
2004 10 05.26726 02 00 40.62 +08 26 56.3 20.7 V 691 – Steward Observatory, Kitt Peak-Spacewatch MPS 117805
2004 10 05.29656 02 00 39.10 +08 26 51.3 20.4 V 691 – Steward Observatory, Kitt Peak-Spacewatch MPS 117805
2004 10 05.32817 02 00 37.45 +08 26 46.6 20.3 V 691 – Steward Observatory, Kitt Peak-Spacewatch MPS 117805
2004 10 09.27480 01 57 10.87 +08 14 36.3 20.2 V 691 – Steward Observatory, Kitt Peak-Spacewatch MPS 117805
2004 10 09.30208 01 57 09.36 +08 14 31.0 20.3 V 691 – Steward Observatory, Kitt Peak-Spacewatch MPS 117805
2004 10 09.32910 01 57 07.83 +08 14 26.1 20.3 V 691 – Steward Observatory, Kitt Peak-Spacewatch MPS 117805
2004 10 13.25594 01 53 30.71 +08 01 49.4 20.2 V 691 – Steward Observatory, Kitt Peak-Spacewatch MPS 312348
2004 10 13.28550 01 53 29.00 +08 01 43.7 20.3 V 691 – Steward Observatory, Kitt Peak-Spacewatch MPS 312348
2004 10 13.31253 01 53 27.41 +08 01 38.5 20.2 V 691 – Steward Observatory, Kitt Peak-Spacewatch MPS 312348
2007 04 16.33620 14 25 34.53 -12 01 30.1 20.5 V G96 – Mt. Lemmon Survey MPS 312622
2007 04 16.34327 14 25 34.17 -12 01 29.4 20.7 V G96 – Mt. Lemmon Survey MPS 312622
2007 04 16.35028 14 25 33.70 -12 01 30.0 19.3 V G96 – Mt. Lemmon Survey MPS 312622
2007 04 16.35734 14 25 33.38 -12 01 27.3 20.6 V G96 – Mt. Lemmon Survey MPS 312622
2007 04 22.33785 14 20 06.79 -11 44 35.0 20.2 V G96 – Mt. Lemmon Survey MPS 312622
2007 04 22.34497 14 20 06.36 -11 44 34.1 20.1 V G96 – Mt. Lemmon Survey MPS 312622
2007 04 22.35211 14 20 05.96 -11 44 33.0 20.5 V G96 – Mt. Lemmon Survey MPS 312622
2007 04 22.35924 14 20 05.53 -11 44 31.2 20.4 V G96 – Mt. Lemmon Survey MPS 312622
2007 05 09.28124 14 04 11.89 -10 56 58.7 20.5 V G96 – Mt. Lemmon Survey MPS 312622
2007 05 09.28928 14 04 11.42 -10 56 57.3 20.6 V G96 – Mt. Lemmon Survey MPS 312622
2007 05 09.29734 14 04 10.95 -10 56 56.0 20.5 V G96 – Mt. Lemmon Survey MPS 312622
2007 05 09.30557 14 04 10.52 -10 56 55.0 20.5 V G96 – Mt. Lemmon Survey MPS 312622
2008 09 22.29728 00 41 34.07 -02 00 26.2 20.3   704 – Lincoln Laboratory ETS, New Mexico MPS 311939
2008 09 22.30923 00 41 33.32 -02 00 28.2 20.2   704 – Lincoln Laboratory ETS, New Mexico MPS 311939
2008 09 22.32119 00 41 32.68 -02 00 32.0 20.3   704 – Lincoln Laboratory ETS, New Mexico MPS 311939
2008 09 24.33867 00 39 44.78 -02 08 46.6 20.0 V G96 – Mt. Lemmon Survey MPS 311939
2008 09 24.34760 00 39 44.24 -02 08 48.8 20.0 V G96 – Mt. Lemmon Survey MPS 311939
2008 09 24.35648 00 39 43.77 -02 08 51.1 19.4 V G96 – Mt. Lemmon Survey MPS 311939
2008 09 24.36530 00 39 43.27 -02 08 53.0 19.5 V G96 – Mt. Lemmon Survey MPS 311939
2008 09 29.31891 00 35 12.26 -02 28 23.6 19.9 V 703 – Catalina Sky Survey MPS 311939
2008 09 29.32552 00 35 11.86 -02 28 23.3 20.0 V 703 – Catalina Sky Survey MPS 311939
2008 09 29.33208 00 35 11.50 -02 28 25.8 20.1 V 703 – Catalina Sky Survey MPS 311939
2008 09 29.33872 00 35 11.18 -02 28 26.8 20.1 V 703 – Catalina Sky Survey MPS 311939
2008 11 02.16829 00 10 53.32 -03 23 48.1 20.5 V G96 – Mt. Lemmon Survey MPS 312622
2008 11 02.17884 00 10 53.11 -03 23 46.7 20.6 V G96 – Mt. Lemmon Survey MPS 312622
2008 11 02.18936 00 10 52.86 -03 23 46.4 20.8 V G96 – Mt. Lemmon Survey MPS 312622
2008 11 02.19987 00 10 52.60 -03 23 46.1 20.4 V G96 – Mt. Lemmon Survey MPS 312622
2008 12 31.07795 00 33 02.01 +01 45 22.3 22.2 V G96 – Mt. Lemmon Survey MPS 312622
2008 12 31.08406 00 33 02.37 +01 45 24.7 21.8 V G96 – Mt. Lemmon Survey MPS 312622
2008 12 31.09016 00 33 02.66 +01 45 28.2 21.9 V G96 – Mt. Lemmon Survey MPS 312622
2008 12 31.09626 00 33 03.06 +01 45 31.5 21.9 V G96 – Mt. Lemmon Survey MPS 312622
2010 01 11.33332 07 38 26.91 +28 01 47.8 21.5 V G96 – Mt. Lemmon Survey MPS 312622
2010 01 11.33851 07 38 26.66 +28 01 48.9 20.9 V G96 – Mt. Lemmon Survey MPS 312622
2010 01 11.34379 07 38 26.26 +28 01 49.9 21.2 V G96 – Mt. Lemmon Survey MPS 312622
2010 01 11.34907 07 38 25.94 +28 01 50.6 21.6 V G96 – Mt. Lemmon Survey MPS 312622
2011 03 02.45296 13 41 43.98 -05 54 06.8 21.7 V 691 – Steward Observatory, Kitt Peak-Spacewatch MPS 372074
2011 03 02.47068 13 41 43.67 -05 54 05.3 21.8 V 691 – Steward Observatory, Kitt Peak-Spacewatch MPS 372074
2011 03 02.48840 13 41 43.39 -05 54 03.2 21.3 V 691 – Steward Observatory, Kitt Peak-Spacewatch MPS 372074
2011 04 28.17303 13 00 19.01 -02 43 27.5 20.7 V 691 – Steward Observatory, Kitt Peak-Spacewatch MPS 380086
2011 04 28.21293 13 00 17.08 -02 43 21.0 21.2 V 691 – Steward Observatory, Kitt Peak-Spacewatch MPS 380086
2011 04 28.25631 13 00 14.93 -02 43 14.1 21.0 V 691 – Steward Observatory, Kitt Peak-Spacewatch MPS 380086
2011 04 30.14975 12 58 47.14 -02 38 28.3 20.8 V 691 – Steward Observatory, Kitt Peak-Spacewatch MPS 381238
2011 04 30.16825 12 58 46.30 -02 38 26.2 20.6 V 691 – Steward Observatory, Kitt Peak-Spacewatch MPS 381238
2011 04 30.18677 12 58 45.46 -02 38 23.5 21.0 V 691 – Steward Observatory, Kitt Peak-Spacewatch MPS 381238
2011 05 03.15720 12 56 35.23 -02 31 51.8 20.8 V 691 – Steward Observatory, Kitt Peak-Spacewatch MPS 381238
2011 05 03.18114 12 56 34.17 -02 31 48.9 20.9 V 691 – Steward Observatory, Kitt Peak-Spacewatch MPS 381238
2011 05 03.20505 12 56 33.12 -02 31 46.2 20.9 V 691 – Steward Observatory, Kitt Peak-Spacewatch MPS 381238
2011 05 05.16939 12 55 12.70 -02 28 07.2   691 – Steward Observatory, Kitt Peak-Spacewatch MPS 381238
2011 05 05.18268 12 55 12.16 -02 28 06.0   691 – Steward Observatory, Kitt Peak-Spacewatch MPS 381238
2011 05 05.19597 12 55 11.60 -02 28 05.0   691 – Steward Observatory, Kitt Peak-Spacewatch MPS 381238
2012 09 12.16355 23 06 24.55 -14 09 42.1 19.0 R H15 – ISON-NM Observatory, Mayhill MPS 431804
2012 09 12.17901 23 06 23.64 -14 09 45.5 18.7 R H15 – ISON-NM Observatory, Mayhill MPS 431804
2012 09 12.19440 23 06 22.90 -14 09 49.1 18.6 R H15 – ISON-NM Observatory, Mayhill MPS 431804
2012 09 12.20968 23 06 22.03 -14 09 53.3 18.8 R H15 – ISON-NM Observatory, Mayhill MPS 431804
2013 12 04.43037 07 03 43.562 +27 30 23.75 21.3 w F51 – Pan-STARRS 1, Haleakala MPS 490879
2013 12 04.47231 07 03 41.673 +27 30 31.75 21.6 w F51 – Pan-STARRS 1, Haleakala MPS 490879
2015 01 23.54384 12 46 18.394 +00 31 30.82 22.1 w F51 – Pan-STARRS 1, Haleakala MPS 569302
2015 01 23.57460 12 46 18.890 +00 31 29.53 21.9 w F51 – Pan-STARRS 1, Haleakala MPS 569302
2015 01 23.58999 12 46 19.133 +00 31 29.01 22.1 w F51 – Pan-STARRS 1, Haleakala MPS 569302
2015 03 22.34671 12 24 51.57 +03 17 51.7 20.8 V G96 – Mt. Lemmon Survey MPS 594865
2015 03 22.35132 12 24 51.34 +03 17 52.9 20.8 V G96 – Mt. Lemmon Survey MPS 594865
2015 03 22.35590 12 24 51.06 +03 17 54.2 21.0 V G96 – Mt. Lemmon Survey MPS 594865
2015 03 22.36048 12 24 50.84 +03 17 55.8 20.4 V G96 – Mt. Lemmon Survey MPS 594865
2015 03 23.48121 12 23 50.663 +03 23 22.18 20.8 w F51 – Pan-STARRS 1, Haleakala MPS 594865
2015 03 23.49377 12 23 49.970 +03 23 25.69 20.9 w F51 – Pan-STARRS 1, Haleakala MPS 594865
2015 03 23.50635 12 23 49.266 +03 23 29.39 20.7 w F51 – Pan-STARRS 1, Haleakala MPS 594865
2015 03 23.51890 12 23 48.564 +03 23 33.01 20.9 w F51 – Pan-STARRS 1, Haleakala MPS 594865
2015 03 24.41786 12 23 00.254 +03 27 52.15 20.8 w F51 – Pan-STARRS 1, Haleakala MPS 594865
2015 03 24.43232 12 22 59.456 +03 27 56.31 20.9 w F51 – Pan-STARRS 1, Haleakala MPS 594865
2015 03 24.44678 12 22 58.643 +03 28 00.45 20.9 w F51 – Pan-STARRS 1, Haleakala MPS 594865
2015 03 25.28454 12 22 13.35 +03 31 59.6   691 – Steward Observatory, Kitt Peak-Spacewatch MPS 594865
2015 03 25.30435 12 22 12.24 +03 32 05.1   691 – Steward Observatory, Kitt Peak-Spacewatch MPS 594865
2015 03 25.33328 12 22 10.61 +03 32 13.8   691 – Steward Observatory, Kitt Peak-Spacewatch MPS 594865
2015 03 27.22104 12 20 28.29 +03 41 05.4 20.8 V 691 – Steward Observatory, Kitt Peak-Spacewatch MPS 594865
2015 03 27.23992 12 20 27.23 +03 41 10.8 21.1 V 691 – Steward Observatory, Kitt Peak-Spacewatch MPS 594865
